Flag for U.S.A. Weather past 2 weeks in Beaumont, Texas, U.S.A.

Now
75 °F

Clear.


Feels Like: 74 °F
Forecast: 71 / 87 °F
Wind: 7 mph from Northeast

Location: Jefferson County Airport

Current Time: Sep 20, 2014 at 5:01:29 AM

Latest Report: Sep 20, 2014 at 3:53 AM


Visibility: 10 mi

Pressure: 29.91 "Hg

Humidity: 88%

Dew point: 71 °F

Location of BeaumontLocation

Historic Weather in Beaumont — Graph

°F

Beaumont temperature yesterday

Maximum temperature yesterday: 87 °F (at 3:53 PM)
Minimum temperature yesterday: 75 °F (at 12:04 AM)
Average temperature yesterday: 79 °F

Past Weeks' High & Low Weather Summary

 TemperatureHumidityPressure
High94 °F (Sep 11, 2:53 PM)97% (Sep 6, 4:03 AM)30.17 "Hg (Sep 6, 4:03 AM)
Low66 °F (Sep 13, 11:53 PM)51% (Sep 8, 3:53 PM)29.86 "Hg (Sep 10, 4:53 PM)
Average79 °F84%29.98 "Hg
* Reported Sep 5 3:53 AM — Sep 20 3:53 AM, Beaumont, Weather by CustomWeather, © 2014

Note: Actual official high and low records may vary slightly from our data, if they occured in-between our weather recording intervals... More about our weather records

Advertising

Beaumont weather history for previous 24 hours

 ConditionsComfort  
Time TempWeatherWind HumidityBarometerVisibility
3:53 AM
Sep 20
75 °FClear.7 mph88%29.91 "Hg10 mi
2:53 AM76 °FClear.7 mph85%29.92 "Hg10 mi
1:53 AM77 °FClear.9 mph82%29.92 "Hg10 mi
12:53 AM78 °FClear.7 mph84%29.92 "Hg10 mi
11:53 PM
Sep 19
78 °FClear.6 mph87%29.92 "Hg10 mi
10:53 PM78 °FClear.7 mph87%29.92 "Hg10 mi
9:53 PM78 °FClear.7 mph84%29.92 "Hg10 mi
8:53 PM78 °FPassing clouds.6 mph84%29.90 "Hg10 mi
7:53 PM79 °FOvercast.7 mph84%29.90 "Hg10 mi
6:53 PM80 °FOvercast.7 mph79%29.89 "Hg10 mi
5:53 PM80 °FCloudy.6 mph79%29.89 "Hg10 mi
4:53 PM80 °FCloudy.8 mph85%29.88 "Hg10 mi
3:53 PM87 °FPartly sunny.10 mph65%29.88 "Hg10 mi
2:53 PM85 °FPartly sunny.6 mph72%29.89 "Hg10 mi
1:53 PM84 °FScattered clouds.6 mph72%29.91 "Hg10 mi
12:53 PM83 °FScattered clouds.3 mph72%29.93 "Hg10 mi
11:53 AM78 °FCloudy.No wind87%29.94 "Hg10 mi
10:53 AM78 °FLight rain. Fog.3 mph90%29.94 "Hg4 mi
9:53 AM79 °FMostly cloudy.7 mph84%29.94 "Hg10 mi
8:53 AM78 °FPartly sunny.9 mph87%29.91 "Hg10 mi
7:53 AM77 °FFog.6 mph94%29.90 "Hg5 mi
6:53 AM76 °FMostly cloudy.8 mph94%29.89 "Hg7 mi
5:53 AM76 °FOvercast.9 mph94%29.88 "Hg8 mi
Weather by CustomWeather, © 2014

See weather overviewHow to use our weather pages